Weather in Antonovka

Russia / Oryol Oblast     52°29′57″N   35°48′13″E
temp.,
°C
wind,
m/s
gust,
m/s
humid.,
%
clouds,
%
prec.,
mm/h
press.,
hPa
HPBL,
m
5 march, fri
fri500:00−1wnw41094100 0.1 1004558
03:00−3wnw5119597 0.1 1006426
06:00−4nnw349399 0.1 100887
09:00−7nw359472 0.1 101095
12:00−3wnw34930 0.0 1012295
15:00−2wnw358825 0.1 1013609
18:00−4wnw348986 0.0 101433
21:00−7wnw348888 0.0 101647
6 march, sat
sat600:00−8w2392100 0.0 101621
03:00−8w3392100 0.0 101747
06:00−11wnw359398 0.0 101777
09:00−9nw4109578 0.1 1018371
12:00−5nnw688394 0.1 1019844
15:00−5nw577952 0.1 1019969
18:00−7wnw368527 0.0 101983
21:00−10w458414 0.0 102064
7 march, sun
sun700:00−11w47890 0.0 1020105
03:00−11sw510900 0.0 1018177
06:00−9sw7149033 0.0 1015317
09:00−7sw9188367 0.0 1012583
12:00−4sw121992100 0.1 10061104
15:00−1wsw132091100 1.2 10031346
18:00−5nw61375100 1.8 1004712
21:00−9w457467 1.8 100664
8 march, mon
mon800:00−8sw5108713 0.0 1004195
03:00−4wsw7148938 0.0 1002671
06:00−7w7158722 0.0 1002643
09:00−10w7148316 0.0 1005585
12:00−8wnw7118533 0.0 1007795
15:00−7wnw7118067 0.1 10091293
18:00−8w5128233 0.0 1010351
21:00−10w4118728 0.0 1012221
9 march, tue
tue900:00−12w479425 0.0 1014129
03:00−13wnw449626 0.0 101580
06:00−14nw349682 0.0 101679
09:00−12nw489491 0.0 1018479
12:00−10nnw578887 0.0 1020624
15:00−9nw478493 0.1 1021831
18:00−11w478761 0.0 1021113
21:00−13w478937 0.0 1023109